Location: Clegg Observatory
(38.9178°N, 78.6069°W)
Time: 08:47:21
(UTC-04:00)

Cosmos 1151 Rocket - Visible Passes

Search period start: 19 October 2017 00:00
Search period end: 29 October 2017 00:00
Orbit: 594 x 615 km, 82.5° (Epoch: 19 October)

Date Brightness Start Highest point End Pass type
(mag) Time Alt. Az. Time Alt. Az. Time Alt. Az.
22 Oct 6.3 06:39:53 10° NE 06:41:19 11° ENE 06:42:44 10° E visible
23 Oct 5.9 06:51:11 10° NNE 06:54:18 19° ENE 06:57:23 10° ESE visible
24 Oct 5.2 07:03:20 10° NNE 07:07:13 31° ENE 07:11:04 10° SE visible
24 Oct 5.2 19:31:40 10° SE 19:31:45 10° SE 19:31:45 10° SE visible
24 Oct 5.7 21:08:17 10° SW 21:08:45 12° SW 21:08:45 12° SW visible
25 Oct 3.7 19:43:32 10° SSE 19:47:01 32° ESE 19:47:01 32° ESE visible
25 Oct 5.7 21:21:58 10° WSW 21:24:02 17° W 21:24:02 17° W visible
26 Oct 3.0 19:55:50 10° S 20:00:07 58° E 20:03:15 18° NNE visible
26 Oct 6.2 21:36:39 10° W 21:38:04 11° WNW 21:39:29 10° NW visible
27 Oct 6.2 06:05:42 10° NE 06:07:40 13° ENE 06:09:37 10° E visible
27 Oct 3.0 20:08:28 10° S 20:12:50 81° W 20:17:15 10° N visible
28 Oct 5.7 06:17:19 10° NNE 06:20:39 21° ENE 06:23:55 10° SE visible
28 Oct 4.7 18:46:25 10° ESE 18:48:33 13° E 18:50:40 10° NE visible
28 Oct 4.1 20:21:25 10° SSW 20:25:38 46° W 20:29:52 10° N visible
